Tracking 28052 objects as of 23-Sep-2023
HD Live streaming from Space Station
objects crossing your sky now

COSMOS 2228

Track COSMOS 2228 now!
10-day predictions
COSMOS 2228 is classified as:


NORAD ID: 22286
Int'l Code: 1992-094A
Perigee: 588.2 km
Apogee: 618.4 km
Inclination: 82.5 °
Period: 96.6 minutes
Semi major axis: 6974 km
RCS: 5.331 m2 (large)
Launch date: December 25, 1992
Source: Commonwealth of Independent States (former USSR) (CIS)
Launch site: PLESETSK MISSILE AND SPACE COMPLEX (PKMTR)
Your satellite tracking list
Your tracking list is empty




NASA's NSSDC Master Catalog

Two Line Element Set (TLE):
1 22286U 92094A   23266.36488880  .00003373  00000-0  34096-3 0  9999
2 22286  82.5229  12.9968 0021640  75.4053 284.9563 14.90572765641938
Source of the keplerian elements: AFSPC